Location: Harburg
(48.7667°N, 10.6667°E)
Time: 05:40:58
(UTC+00:00)

Nadezhda 4 Rocket - Pass Details

Date: 18 September 2020
Orbit: 949 x 992 km, 82.9° (Epoch: 29 October)

Event Time Altitude Azimuth Distance (km) Brightness Sun altitude
Rises 18:50:11 0° 352° (N) 3,641 7.4 -14.9°
Reaches altitude 10° 18:52:42 10° 355° (N) 2,689 6.6 -15.3°
Maximum altitude 18:58:50 70° 79° (ENE) 1,011 3.9 -16.2°
Enters shadow 19:04:42 11° 162° (SSE) 2,590 5.9 -17.1°
